Regional Weather Roundup
Issued by NWS

Home | Current Version | Previous Version | Graphics & Text | Print | Product List | Glossary On
Versions: 1 2 3 4 5 6 7 8 9 10 11 12 13 14 15 16 17 18 19 20 21 22 23 24 25 26 27 28 29 30 31 32 33 34 35 36 37 38 39 40 41 42 43 44 45
000
ASUS45 KSLC 291410
RWRUT

UTAH REGIONAL WEATHER ROUNDUP
NATIONAL WEATHER SERVICE SALT LAKE CITY UT
800 AM MDT SAT AUG 29 2015

UTZ001>011-023>025-291500-

NORTHERN UTAH

CITY           SKY/WX    TMP DP  RH WIND       PRES   REMARKS
BRIGHAM CITY   PTSUNNY   61  48  62 CALM      30.08R
HILL AFB       MOSUNNY   69  38  32 E18G25    30.10R
LOGAN          SUNNY     57  46  66 CALM      30.09S
OGDEN          MOSUNNY   69  39  33 S10       30.07R
PROVO AIRPORT  MOSUNNY   63  46  55 CALM      30.14R
SALT LAKE CITY PTSUNNY   76  41  28 SE15      30.06R
VERNAL         SUNNY     62  44  51 CALM      30.25R
WENDOVER       MOSUNNY   70  41  35 NE9       30.04R
HEBER CITY     SUNNY     52  45  76 CALM      30.25R
WEST JORDAN    SUNNY     75  39  27 S12       30.11R

$$

UTZ012>022-026-027-291500-

SOUTHERN/CENTRAL UTAH

CITY           SKY/WX    TMP DP  RH WIND       PRES   REMARKS
BLANDING       SUNNY     63  38  39 NW5       30.37R
BRYCE CANYON   MOSUNNY   51  44  77 W7        30.41R
CEDAR CITY     SUNNY     66  45  46 CALM      30.20R
DELTA          MOSUNNY   65  41  41 E3        30.13R
HANKSVILLE     SUNNY     59  50  72 CALM      30.20R
MILFORD        SUNNY     61  43  51 S5        30.15R
MOAB/CYNLANDS  SUNNY     69  43  38 SE10      30.18R
PRICE          SUNNY     66  38  35 CALM      30.27R
ST GEORGE      SUNNY     75  48  38 S6        30.04R
KANAB          SUNNY     63  54  72 NE5       30.25R

$$

REGIONAL REPORTS     COLORADO/ARIZONA

CITY           SKY/WX    TMP DP  RH WIND       PRES   REMARKS
CRAIG, CO      SUNNY     50  45  83 CALM      30.34R
GRAND JUNCTION SUNNY     62  46  55 S9        30.23R
RIFLE          SUNNY     55  46  71 CALM      30.31R
MONTROSE       SUNNY     58  46  64 S5        30.32R
CORTEZ         SUNNY     59  47  64 CALM      30.30R
PAGE, AZ       SUNNY     73  45  36 CALM      30.15R
GRAND CANYON   SUNNY     53  43  68 NE3       30.32R
KINGMAN        SUNNY     77  52  41 CALM      30.04R
FLAGSTAFF      SUNNY     52  48  86 CALM      30.35R

$$

REGIONAL REPORTS    NEVADA/IDAHO/WYOMING

CITY           SKY/WX    TMP DP  RH WIND       PRES   REMARKS
LAS VEGAS, NV  PTCLDY    88  46  23 SW5       29.87R
ELY            MOCLDY    57  42  57 S10       30.21R
ELKO           CLOUDY    59  45  59 E7        30.06R
POCATELLO, ID  LGT RAIN  71  42  35 E14       30.03R
EVANSTON, WY   MOSUNNY   59  34  39 SE5       30.31R
ROCK SPRINGS   SUNNY     61  34  36 SE6       30.31R
KEMMERER       MOSUNNY   54  34  47 N8        30.34R

$$


USA.gov is the U.S. government's official web portal to all federal, state and local government web resources and services.